Temperature
23 22 21 22 28 30 28 28 28 28 27 26 25 25 26 25 24 22 19 19 19 18 18 18 18 18 18 18 18 18 18 18 18 18 18 18 18 18 18 18 18 18 18 18 18 18 18 18 18
22 21 22 27 30 29 28 28 28 27 26 25 25 25 25 23 21 20 19 18 19 18 18 17 18 18 18 18 18 18 18 18 18 18 18 18 18 18 18 18 18 18 18 18 18 18 18 18 18
22 22 26 31 30 29 28 28 27 26 25 25 25 24 24 22 21 20 19 18 19 18 18 18 18 18 18 18 18 18 18 18 18 18 18 18 18 18 18 18 18 18 18 18 18 18 18 18 17
23 25 29 31 29 29 29 28 28 27 26 25 25 24 22 21 21 20 19 19 19 18 18 18 18 18 18 18 18 18 18 18 18 18 18 18 18 18 18 18 18 18 18 18 18 18 17 17 17
24 29 31 31 29 29 29 28 28 28 27 26 25 24 22 20 20 19 19 19 19 19 18 18 18 18 18 18 18 18 18 18 18 18 18 18 18 18 18 18 18 18 18 18 18 17 17 17 17
29 32 32 30 29 29 29 28 28 27 26 25 25 24 22 20 19 19 19 19 19 19 18 18 18 18 18 18 18 18 18 18 18 18 18 18 18 18 18 18 18 18 18 17 17 17 17 17 17
30 32 31 31 30 29 29 28 28 28 27 26 25 25 22 20 20 19 19 19 19 19 18 18 18 18 18 18 18 18 18 18 18 18 17 17 17 17 17 17 17 17 17 17 17 17 17 17 17
30 33 32 31 30 30 29 28 28 27 27 25 25 25 23 21 19 19 19 18 18 18 18 18 18 17 17 18 18 18 18 18 18 18 17 17 17 17 17 17 17 17 17 17 17 17 17 17 17
30 33 32 32 31 30 29 29 27 27 26 25 25 25 23 21 20 19 19 19 18 18 18 18 18 18 17 17 17 18 18 18 18 17 18 17 17 17 17 17 17 17 17 17 17 17 17 17 17
32 33 32 32 32 31 30 29 28 27 27 26 24 23 22 20 20 20 20 20 19 19 18 18 18 18 18 17 17 17 17 17 17 17 17 17 17 17 17 17 17 17 17 17 17 17 17 17 17
33 33 32 32 31 30 30 29 28 28 28 27 25 23 22 21 21 21 21 20 20 19 19 18 18 18 18 17 17 17 17 17 17 17 17 17 17 17 17 17 17 17 17 17 17 17 17 17 17
33 33 32 32 31 30 30 30 29 29 28 27 25 23 22 22 22 21 21 21 20 19 19 19 18 18 18 18 18 18 18 17 17 17 17 17 17 17 17 17 17 17 17 17 17 17 17 17 17
33 32 31 31 30 30 30 30 29 28 27 26 25 24 23 23 22 22 21 20 20 19 19 19 18 18 18 18 18 18 18 18 18 18 17 17 17 17 17 17 17 17 17 17 17 17 17 17 17
32 32 31 31 31 30 30 30 29 28 27 26 25 24 23 23 23 22 21 20 20 20 19 19 19 19 19 18 18 18 18 18 18 18 17 17 17 17 17 17 17 17 17 17 17 17 17 17 17
32 32 32 32 31 31 31 30 30 28 27 26 25 24 24 23 23 22 21 21 20 20 20 19 19 19 19 18 18 18 18 18 18 18 18 17 17 17 17 17 17 17 17 17 17 17 17 17 17
33 33 32 32 32 31 31 31 31 28 27 27 26 25 24 23 23 22 22 21 21 20 20 19 19 19 19 19 18 18 18 18 18 18 18 17 18 17 18 17 17 17 17 17 17 17 17 17 17
33 33 32 32 32 32 32 32 31 28 28 27 26 25 24 24 23 22 22 21 21 20 20 20 19 19 19 19 18 18 18 18 18 18 18 18 18 18 18 18 18 17 17 17 17 17 17 17 17
32 33 32 32 32 32 32 32 31 29 28 28 27 26 25 24 24 23 22 22 21 21 20 20 20 20 19 19 19 18 18 18 18 18 18 18 18 18 18 18 18 17 17 17 17 17 17 17 17
33 33 32 32 33 32 32 32 32 30 29 28 27 26 26 25 25 23 23 22 22 21 21 21 20 20 20 19 19 19 18 18 18 18 18 18 18 18 18 18 18 18 17 17 17 17 17 17 17
32 32 32 32 32 32 32 32 32 31 29 29 28 27 26 26 25 24 23 22 22 22 21 21 21 20 20 19 19 19 19 18 18 18 18 18 18 18 18 18 18 18 18 18 17 17 17 17 17
32 32 33 32 32 32 32 32 32 31 30 29 28 28 27 27 26 24 23 23 23 22 22 21 21 21 20 20 19 19 19 19 18 18 18 18 18 18 18 18 18 18 18 18 18 18 17 17 17
32 33 32 32 32 32 32 32 32 32 31 30 29 28 28 27 26 25 24 24 23 23 22 22 22 21 21 20 19 19 19 19 19 18 18 18 18 18 18 18 18 18 18 18 18 18 17 17 17
32 33 32 32 32 32 32 32 33 32 31 31 30 29 28 28 27 26 25 24 24 23 22 22 22 22 21 21 20 20 19 19 19 18 18 18 18 18 18 18 18 18 18 18 18 18 18 17 17
32 32 31 32 32 31 32 32 32 32 31 32 31 29 28 28 27 26 25 24 24 23 23 22 22 22 21 21 21 20 20 19 19 19 19 19 18 18 18 18 18 18 18 18 18 18 18 17 17
32 31 31 30 31 31 32 31 31 32 32 31 31 30 28 28 27 26 25 25 24 24 23 23 23 22 22 21 21 21 20 20 19 19 19 19 19 18 18 18 18 18 18 18 18 18 18 17 17
32 32 30 30 30 32 31 31 32 32 31 30 30 29 28 28 27 26 26 25 24 24 23 23 23 23 22 22 21 21 21 20 20 20 19 19 19 19 19 19 19 19 18 18 18 17 17 17 17
31 32 33 32 31 31 31 31 32 32 31 30 30 29 28 27 27 26 25 25 24 24 23 23 23 23 22 22 21 21 21 21 20 20 19 19 19 19 19 19 19 19 18 18 18 18 17 17 17
31 32 31 31 29 29 31 31 31 30 30 30 30 29 28 27 27 26 25 25 24 24 23 23 23 23 22 22 22 21 21 21 20 20 20 19 19 19 19 19 19 19 18 18 18 17 17 17 17
30 30 31 31 31 30 30 31 31 30 30 29 29 28 27 27 26 26 25 25 24 24 23 23 23 23 22 22 21 21 21 21 20 20 20 19 19 19 19 19 18 18 18 18 18 17 17 17 17
30 31 30 30 29 30 30 30 30 30 29 29 28 27 26 26 26 25 25 24 24 24 23 23 22 22 22 22 22 21 21 21 20 20 20 20 19 19 19 18 18 18 18 18 17 17 17 17 17
Wind_Speed
14 11 7 5 3 7 12 10 8 8 6 7 7 5 7 8 7 8 7 9 10 11 12 12 10 10 11 11 11 12 13 13 13 13 12 13 12 12 12 12 12 12 12 12 12 11 12 12 13
10 7 5 4 4 10 12 9 10 10 8 7 7 7 8 9 8 9 9 9 11 11 12 12 11 10 11 11 12 12 12 12 12 12 12 11 11 11 11 11 11 11 11 11 11 11 11 12 13
8 6 4 2 10 12 11 10 10 10 7 5 5 7 7 7 8 7 9 11 11 11 11 13 11 11 11 11 11 11 11 11 11 11 11 11 10 10 10 10 10 10 10 11 11 11 11 12 12
5 5 2 7 14 12 10 9 9 8 8 6 7 8 8 7 6 9 12 11 11 11 11 14 10 11 10 10 10 10 10 10 10 10 10 10 9 9 10 9 10 10 10 10 10 10 11 11 11
5 2 5 11 13 11 9 8 6 6 6 7 7 10 9 7 10 13 12 10 10 10 11 13 10 10 10 10 9 9 10 10 9 9 9 9 9 8 8 8 9 9 9 9 9 9 10 10 10
3 1 8 12 12 9 8 6 7 8 9 9 10 11 8 9 11 12 11 9 9 9 10 12 11 10 10 9 9 9 9 9 8 8 8 8 8 8 7 8 8 8 8 8 9 9 9 10 10
3 5 10 11 10 9 7 6 7 8 9 8 8 10 9 11 11 11 10 9 8 8 9 9 11 11 10 9 9 8 8 8 8 7 8 8 8 7 7 7 7 7 8 8 8 8 9 9 9
4 2 9 10 9 9 8 7 7 8 9 9 5 7 10 14 12 11 10 9 8 7 7 7 7 8 10 11 9 8 7 7 7 7 7 7 7 7 7 8 7 6 7 8 9 9 8 8 8
3 3 9 9 8 8 8 7 7 7 9 7 5 7 13 17 14 12 11 9 8 7 6 6 7 7 6 8 10 9 8 7 8 8 8 7 6 6 7 7 7 6 7 7 8 8 8 8 9
2 6 10 7 6 7 7 7 7 7 8 8 9 11 16 16 15 13 11 11 10 9 8 6 6 6 6 6 7 6 7 7 6 6 7 5 5 4 4 8 7 7 7 7 8 8 9 9 8
2 6 6 5 5 6 7 7 6 7 7 8 12 16 17 16 14 12 11 10 9 9 8 8 7 6 5 5 5 4 4 5 5 5 5 4 4 4 4 5 6 6 7 6 8 8 7 6 4
2 5 4 4 5 5 6 6 6 5 6 8 13 17 17 15 13 12 10 9 9 8 8 7 7 6 5 4 4 4 4 4 4 5 4 4 3 3 3 2 3 4 4 4 4 4 4 4 4
2 3 3 4 5 5 6 6 5 6 7 11 14 16 16 14 12 10 9 8 8 8 8 8 7 6 6 5 4 4 4 4 4 4 5 4 3 3 2 2 2 3 3 4 4 4 3 3 5
2 3 4 4 5 5 5 5 5 7 11 13 15 15 15 13 12 11 10 9 9 9 8 8 8 8 7 6 5 4 4 4 4 4 5 5 3 3 3 3 2 3 3 3 3 4 3 4 3
3 3 4 4 4 4 5 5 5 9 13 14 14 14 14 13 12 11 11 10 10 9 9 9 9 8 7 7 6 5 5 5 4 4 4 5 5 4 3 3 3 3 3 4 4 3 3 4 5
5 5 3 4 3 4 6 1 7 11 14 14 14 14 13 13 13 12 11 10 10 10 9 9 8 8 8 7 6 5 5 4 4 4 4 5 5 5 4 3 3 3 3 3 3 4 4 4 4
7 5 2 4 4 4 6 1 7 11 14 14 14 14 14 13 13 12 12 11 11 10 10 10 9 9 8 7 6 5 4 5 5 4 4 4 5 6 5 4 3 4 3 3 4 3 4 4 4
5 4 3 3 4 5 6 3 5 11 13 14 14 14 14 14 14 13 12 12 11 11 10 10 10 9 8 7 6 5 5 5 5 4 4 4 5 6 6 5 5 5 4 4 3 3 3 4 4
5 6 5 2 2 5 6 6 5 9 13 14 14 14 14 14 13 12 12 12 12 11 11 11 10 10 8 7 7 6 6 5 5 5 5 5 5 6 6 5 5 5 5 5 5 5 5 4 3
9 9 6 3 3 5 6 7 6 9 13 14 15 15 15 14 13 13 13 13 13 13 12 12 12 11 10 8 7 5 5 5 5 4 4 6 6 6 6 6 6 6 5 5 5 5 5 4 4
11 10 7 5 4 7 7 8 7 8 11 12 13 14 15 15 15 14 14 14 14 13 14 12 12 11 11 10 7 5 5 5 5 5 5 6 6 6 6 6 6 5 6 5 5 6 6 5 5
11 8 7 7 8 6 6 7 5 7 9 11 13 15 16 16 15 15 15 15 15 14 13 13 12 12 11 10 9 9 7 6 5 5 4 5 6 6 6 5 5 5 5 4 6 5 5 5 5
9 5 7 8 9 9 8 8 4 5 7 9 11 14 16 16 16 16 15 15 14 13 13 13 12 12 12 11 11 10 9 7 5 5 4 5 5 6 6 5 5 5 5 5 5 4 5 5 5
6 6 6 8 10 12 10 9 7 3 5 6 7 11 13 15 15 15 15 14 13 13 13 13 13 12 12 12 12 11 10 8 6 6 5 5 5 5 6 6 5 5 4 4 5 5 6 5 5
11 11 9 11 11 11 6 8 6 3 3 4 4 6 10 13 14 14 15 15 14 14 14 13 13 13 13 13 12 11 10 9 8 7 6 6 5 5 5 5 5 4 4 5 5 5 5 5 6
14 15 13 11 11 9 7 8 4 1 2 3 3 3 6 10 12 13 14 14 14 14 14 14 14 13 12 12 12 11 11 9 8 9 7 6 5 4 4 5 5 5 5 5 4 5 4 4 5
13 15 13 13 13 11 8 6 6 2 2 2 2 1 4 8 10 11 12 13 13 13 14 14 13 12 12 12 11 10 11 10 8 8 8 7 6 5 6 6 5 5 4 4 4 3 4 3 4
10 10 10 13 13 13 12 11 7 3 3 3 3 1 3 6 8 9 10 11 11 12 12 12 12 12 11 11 10 9 10 10 9 8 8 7 6 5 5 5 5 5 4 4 4 4 3 3 3
11 12 11 12 13 14 13 7 2 1 2 3 3 2 2 5 7 8 8 9 10 11 11 11 11 11 11 11 10 9 9 9 9 9 8 8 7 7 6 6 5 5 5 4 4 4 3 3 3
12 13 14 13 13 12 14 7 4 1 2 3 3 3 1 3 5 7 8 8 9 10 10 11 11 11 11 10 10 10 9 9 9 9 9 8 8 7 7 7 6 5 5 4 4 4 3 3 3
Wind_Direction
166 176 201 230 215 75 64 62 65 75 72 69 66 58 60 47 43 87 111 122 125 127 125 129 123 121 119 118 117 121 122 122 122 121 120 121 120 120 122 122 121 120 122 123 124 123 121 123 126
169 182 221 240 52 71 66 64 68 69 89 98 80 74 74 67 70 104 125 130 134 127 126 122 121 121 119 118 119 120 122 123 122 122 121 122 122 124 125 124 122 121 122 123 124 126 126 126 128
176 219 262 55 56 60 68 71 82 90 95 91 86 66 64 80 98 112 125 138 134 123 121 117 123 121 119 118 118 120 121 122 122 123 125 124 125 126 124 124 123 122 122 124 125 126 128 129 129
204 225 219 69 68 64 74 86 97 102 89 84 100 90 81 78 101 117 130 138 130 129 130 120 125 121 119 118 118 118 119 121 124 127 128 129 129 127 125 125 124 124 125 126 126 127 129 130 131
244 258 84 75 71 73 79 88 90 90 88 96 99 101 95 84 105 122 133 134 132 131 124 122 126 127 125 123 121 119 120 122 125 126 127 127 126 126 128 128 127 128 130 131 132 131 132 134 135
254 346 65 71 77 82 88 94 92 92 100 106 109 108 98 116 127 132 135 137 134 130 126 126 132 131 131 131 128 126 124 123 123 120 119 119 119 123 125 128 134 135 135 133 134 135 137 140 141
326 50 64 71 82 87 88 93 89 102 109 109 116 110 122 135 136 138 135 135 134 133 134 136 142 142 142 139 133 130 126 123 123 121 122 121 120 123 125 127 133 138 141 144 146 148 146 146 149
304 46 69 70 75 84 102 99 93 101 104 117 126 120 140 146 147 145 141 142 140 141 139 138 142 137 149 146 141 136 132 130 133 131 127 127 133 137 141 146 138 142 147 151 155 155 153 154 159
274 50 62 63 70 94 119 115 106 107 120 120 107 106 131 144 151 152 152 152 154 156 156 151 144 143 145 142 142 151 148 147 156 149 144 156 152 144 154 127 136 148 153 157 158 157 157 163 166
296 51 60 59 71 103 127 123 129 135 134 128 122 118 134 150 159 163 163 164 166 166 167 161 160 157 155 150 149 162 160 154 164 147 150 150 140 146 133 126 141 145 151 156 155 158 171 191 174
31 53 64 77 87 114 132 134 143 145 142 149 149 147 153 161 169 171 169 170 168 167 171 171 169 169 163 159 159 158 157 154 160 153 155 149 154 159 153 145 148 154 164 163 155 175 185 182 172
76 61 62 88 113 131 132 136 144 149 100 137 151 154 161 169 174 177 173 172 169 173 177 176 170 173 178 175 166 173 173 170 166 158 178 167 167 169 154 162 148 159 163 158 170 180 183 181 182
102 76 82 106 131 133 139 139 140 140 127 139 148 159 168 174 176 178 176 175 180 183 184 181 177 178 182 188 202 181 180 182 171 175 181 190 187 183 167 157 161 179 170 173 184 196 188 196 201
78 103 111 122 131 147 153 150 162 145 148 150 158 167 174 178 180 179 184 188 190 191 190 186 188 189 191 195 202 198 196 189 199 196 192 203 204 190 187 177 182 194 194 195 198 192 198 217 219
163 155 144 141 153 156 177 174 175 152 158 162 168 174 178 183 186 190 191 194 195 194 194 192 194 195 199 204 207 205 210 201 204 203 202 213 216 205 203 192 197 197 193 193 210 214 220 222 219
202 214 200 154 178 178 230 144 145 165 172 174 176 178 184 189 195 196 197 200 200 198 197 200 201 194 200 208 214 213 216 209 213 214 213 217 221 216 219 215 213 198 210 207 213 222 227 235 237
217 231 221 167 189 203 235 242 142 174 185 184 184 185 189 192 201 201 202 201 203 202 202 200 207 204 205 206 211 219 221 225 226 219 222 218 220 218 221 224 221 215 218 225 235 216 234 236 248
228 241 226 222 188 225 239 243 166 185 195 195 192 192 194 199 202 201 202 203 203 203 205 206 206 206 207 207 207 220 226 226 226 223 220 229 227 221 223 224 220 226 225 232 237 241 241 250 252
253 256 252 238 201 235 248 251 208 191 200 202 199 199 201 204 200 198 200 203 201 201 203 205 206 200 202 207 211 211 216 222 221 222 221 228 230 225 224 234 218 228 230 234 235 238 236 242 246
237 243 240 214 193 245 263 260 227 199 206 207 206 205 206 203 199 198 200 202 203 202 203 202 203 201 203 205 212 217 223 223 225 231 218 227 231 231 228 228 228 226 229 228 233 234 248 248 231
233 242 245 240 209 228 265 249 219 204 207 209 214 214 211 207 202 199 201 204 204 204 203 203 202 200 203 203 206 206 210 222 216 219 218 223 227 232 239 234 236 233 234 227 228 230 240 252 246
233 234 240 234 239 243 245 269 213 203 204 210 215 216 215 211 208 203 201 203 205 204 201 200 197 197 197 199 208 209 217 222 223 229 224 218 221 230 231 232 233 236 241 236 238 231 241 252 255
241 224 225 236 247 258 240 262 240 189 227 229 223 220 217 213 210 206 204 202 203 200 197 194 193 195 196 199 204 211 222 224 224 226 220 228 218 220 227 226 229 232 241 242 249 247 247 245 250
196 186 203 231 244 247 247 254 256 234 262 262 231 221 216 211 209 207 205 199 199 196 193 190 190 195 196 200 205 211 219 222 226 224 222 220 215 217 222 224 223 231 243 244 246 244 241 248 255
208 219 226 229 231 241 221 243 259 309 310 294 272 227 210 206 205 202 200 197 196 195 193 191 191 195 197 200 205 209 214 217 221 229 224 226 222 216 212 221 218 229 234 244 248 244 252 250 253
217 229 237 245 245 234 197 236 243 308 341 318 292 237 200 197 197 197 196 196 196 194 192 192 193 196 197 201 205 208 210 215 218 218 229 223 229 224 199 207 216 225 233 239 239 249 248 252 258
216 229 244 250 256 260 237 227 234 234 306 330 334 225 190 189 189 188 188 191 192 191 190 191 190 192 195 199 202 206 210 217 218 212 217 224 221 217 202 208 214 221 224 230 236 246 251 254 257
240 229 228 240 243 247 242 233 239 258 304 351 2 347 189 183 180 179 181 183 185 184 183 185 187 189 191 194 199 203 207 210 214 217 217 220 218 216 208 209 212 212 211 211 221 232 229 243 254
206 218 229 239 246 250 252 238 191 229 329 336 349 358 174 178 174 172 174 176 178 178 177 180 182 185 188 192 194 200 203 205 207 211 213 210 213 206 207 210 210 212 215 212 212 232 231 242 255
228 228 222 232 235 242 260 252 114 98 354 349 352 18 66 167 169 167 168 170 174 177 178 181 185 188 190 191 192 196 200 203 205 208 209 206 204 205 204 204 206 209 211 213 218 230 237 246 254
Height
1500 1501 1502 1504 1497 1494 1502 1502 1500 1503 1506 1510 1512 1511 1512 1515 1518 1529 1532 1531 1533 1534 1535 1535 1535 1537 1538 1539 1539 1540 1541 1542 1543 1544 1545 1546 1547 1548 1549 1550 1551 1552 1553 1554 1555 1556 1557 1557 1558
1502 1503 1505 1500 1492 1502 1508 1502 1504 1507 1511 1514 1515 1515 1516 1521 1525 1529 1531 1533 1535 1536 1537 1537 1537 1539 1540 1541 1541 1542 1543 1544 1545 1546 1547 1548 1549 1550 1551 1552 1553 1554 1555 1556 1557 1557 1558 1559 1559
1504 1504 1504 1493 1495 1503 1509 1505 1507 1511 1514 1514 1516 1518 1521 1526 1529 1531 1533 1534 1537 1538 1539 1538 1539 1541 1542 1543 1544 1544 1545 1546 1547 1548 1549 1550 1551 1552 1553 1553 1554 1555 1556 1557 1558 1559 1559 1560 1561
1506 1505 1500 1494 1502 1503 1504 1506 1510 1512 1515 1517 1517 1521 1526 1530 1531 1533 1534 1536 1538 1540 1541 1540 1541 1542 1543 1544 1545 1546 1547 1548 1549 1550 1551 1552 1552 1553 1554 1555 1555 1556 1557 1558 1559 1560 1561 1561 1562
1506 1500 1493 1498 1503 1504 1505 1509 1511 1511 1514 1518 1519 1523 1529 1533 1533 1534 1536 1538 1540 1542 1543 1542 1543 1544 1545 1546 1547 1548 1549 1550 1550 1551 1552 1553 1554 1554 1555 1556 1556 1557 1558 1559 1560 1561 1562 1562 1563
1504 1494 1496 1504 1506 1506 1508 1511 1512 1514 1517 1520 1521 1524 1532 1535 1535 1537 1538 1540 1542 1543 1544 1543 1544 1545 1546 1547 1548 1549 1550 1551 1552 1553 1554 1554 1555 1555 1556 1557 1557 1558 1559 1560 1561 1562 1562 1563 1564
1502 1494 1498 1501 1505 1507 1509 1512 1512 1514 1518 1521 1523 1525 1532 1536 1538 1539 1540 1541 1543 1544 1546 1546 1547 1547 1547 1548 1550 1551 1551 1552 1553 1554 1555 1555 1556 1556 1556 1557 1558 1559 1559 1560 1561 1562 1563 1564 1565
1503 1494 1496 1499 1504 1508 1510 1513 1515 1517 1520 1525 1525 1526 1532 1536 1538 1540 1541 1542 1544 1545 1547 1547 1549 1549 1550 1550 1550 1551 1552 1553 1554 1554 1555 1556 1556 1557 1557 1558 1558 1559 1560 1561 1561 1563 1564 1565 1566
1504 1496 1500 1500 1504 1507 1510 1513 1517 1520 1522 1525 1527 1528 1532 1536 1538 1540 1542 1544 1544 1546 1547 1548 1550 1550 1551 1552 1552 1552 1553 1554 1554 1555 1556 1556 1558 1558 1559 1559 1559 1559 1560 1561 1562 1563 1564 1565 1566
1500 1498 1501 1501 1502 1505 1510 1513 1517 1519 1522 1525 1529 1531 1534 1536 1539 1541 1543 1544 1545 1547 1548 1548 1550 1551 1552 1553 1553 1554 1555 1555 1556 1557 1557 1558 1558 1559 1559 1559 1559 1560 1561 1562 1563 1564 1565 1566 1568
1499 1499 1500 1502 1505 1507 1510 1513 1516 1517 1519 1523 1527 1531 1534 1537 1539 1541 1543 1545 1546 1547 1548 1549 1550 1551 1552 1553 1554 1555 1555 1556 1556 1557 1557 1558 1559 1559 1560 1560 1560 1560 1562 1563 1563 1564 1566 1568 1568
1501 1502 1503 1504 1507 1508 1510 1512 1515 1517 1519 1524 1527 1531 1534 1537 1539 1541 1543 1545 1547 1548 1549 1550 1550 1551 1552 1553 1554 1554 1556 1556 1557 1557 1558 1559 1559 1560 1560 1560 1561 1562 1563 1563 1565 1565 1566 1567 1567
1501 1503 1505 1506 1507 1509 1511 1513 1515 1518 1522 1524 1528 1531 1534 1537 1539 1542 1544 1545 1547 1548 1549 1550 1550 1551 1551 1552 1553 1555 1555 1557 1557 1557 1558 1558 1559 1560 1560 1560 1561 1562 1563 1564 1564 1565 1566 1566 1567
1503 1504 1505 1506 1508 1510 1511 1513 1515 1518 1522 1525 1528 1531 1534 1536 1539 1541 1543 1545 1546 1547 1549 1550 1550 1551 1551 1552 1553 1554 1556 1556 1557 1558 1558 1558 1559 1560 1560 1560 1561 1562 1562 1564 1564 1565 1565 1566 1566
1504 1503 1504 1505 1507 1508 1510 1511 1513 1517 1521 1524 1527 1530 1533 1536 1538 1540 1542 1544 1545 1547 1548 1549 1550 1550 1551 1552 1553 1554 1555 1556 1557 1557 1558 1558 1559 1559 1560 1561 1561 1562 1562 1562 1563 1564 1564 1565 1566
1501 1501 1503 1504 1505 1507 1509 1510 1510 1516 1519 1522 1526 1529 1532 1535 1537 1539 1541 1543 1544 1546 1547 1548 1550 1550 1550 1551 1552 1554 1555 1555 1556 1557 1557 1557 1558 1559 1559 1560 1561 1561 1561 1562 1562 1563 1563 1564 1564
1499 1502 1503 1503 1503 1504 1505 1505 1508 1514 1517 1520 1523 1526 1530 1533 1535 1537 1539 1541 1542 1544 1545 1546 1548 1549 1550 1550 1551 1552 1553 1554 1555 1556 1556 1557 1557 1558 1559 1559 1560 1560 1561 1561 1562 1562 1562 1563 1563
1503 1500 1502 1502 1500 1501 1502 1501 1505 1511 1514 1516 1520 1523 1527 1529 1532 1535 1537 1539 1540 1542 1543 1545 1546 1547 1548 1549 1550 1551 1552 1553 1553 1554 1554 1555 1556 1557 1557 1558 1558 1559 1560 1560 1560 1560 1560 1561 1561
1497 1499 1501 1499 1498 1500 1500 1499 1501 1506 1510 1513 1517 1520 1523 1526 1529 1532 1534 1536 1538 1539 1541 1542 1544 1545 1546 1547 1549 1550 1551 1551 1552 1553 1553 1554 1554 1555 1556 1557 1557 1557 1558 1558 1558 1559 1559 1559 1559
1498 1500 1499 1498 1498 1500 1498 1497 1496 1502 1506 1509 1513 1516 1519 1523 1526 1529 1531 1533 1535 1537 1538 1540 1541 1543 1544 1545 1547 1548 1549 1550 1550 1551 1551 1552 1552 1553 1555 1555 1555 1556 1556 1556 1556 1556 1557 1557 1558
1496 1497 1496 1499 1499 1498 1499 1497 1494 1497 1502 1506 1509 1512 1515 1518 1521 1525 1527 1530 1532 1533 1535 1537 1539 1540 1542 1543 1545 1546 1546 1547 1548 1548 1549 1549 1550 1551 1552 1552 1553 1553 1554 1554 1554 1554 1554 1555 1555
1496 1491 1494 1497 1501 1497 1499 1504 1493 1492 1497 1501 1504 1507 1510 1513 1517 1520 1523 1526 1528 1530 1532 1534 1536 1538 1540 1541 1543 1544 1545 1546 1546 1546 1547 1547 1547 1548 1550 1550 1551 1551 1552 1552 1552 1552 1552 1552 1553
1490 1489 1492 1494 1497 1499 1496 1502 1493 1489 1494 1495 1498 1501 1504 1508 1512 1516 1519 1522 1525 1527 1529 1531 1533 1535 1537 1539 1540 1541 1543 1544 1545 1544 1544 1544 1545 1546 1547 1548 1549 1549 1550 1550 1549 1549 1549 1550 1550
1490 1493 1494 1494 1493 1508 1498 1502 1499 1487 1490 1489 1492 1496 1499 1503 1507 1511 1515 1518 1521 1524 1526 1528 1530 1532 1534 1536 1537 1539 1540 1541 1542 1542 1542 1543 1544 1544 1545 1546 1546 1547 1547 1547 1547 1546 1547 1547 1546
1490 1496 1506 1509 1508 1504 1491 1499 1495 1485 1486 1488 1489 1492 1495 1499 1503 1507 1511 1514 1517 1520 1522 1525 1527 1529 1531 1533 1534 1536 1537 1539 1539 1540 1541 1541 1542 1543 1543 1544 1544 1544 1544 1544 1544 1544 1544 1544 1543
1485 1487 1504 1514 1508 1496 1496 1497 1488 1483 1487 1489 1489 1490 1492 1495 1498 1502 1506 1510 1513 1516 1519 1521 1523 1525 1527 1529 1531 1533 1534 1536 1537 1538 1539 1540 1541 1541 1540 1540 1541 1541 1541 1542 1542 1542 1542 1541 1541
1484 1484 1478 1489 1494 1500 1491 1488 1484 1482 1485 1486 1487 1488 1490 1492 1495 1499 1502 1506 1509 1512 1515 1518 1520 1522 1524 1527 1529 1530 1532 1533 1535 1535 1536 1537 1538 1538 1538 1538 1538 1539 1539 1539 1539 1539 1539 1539 1539
1479 1478 1484 1490 1506 1509 1497 1492 1488 1485 1484 1484 1486 1487 1489 1491 1494 1497 1500 1503 1506 1509 1512 1514 1517 1519 1521 1524 1526 1528 1529 1530 1532 1533 1534 1535 1535 1536 1536 1536 1536 1536 1537 1536 1536 1537 1536 1536 1536
1483 1484 1483 1484 1487 1501 1502 1491 1477 1483 1484 1485 1485 1487 1488 1491 1493 1495 1498 1501 1504 1507 1509 1511 1513 1516 1518 1521 1522 1524 1526 1528 1529 1530 1531 1531 1532 1533 1533 1534 1534 1534 1535 1535 1534 1535 1534 1534 1534
1475 1476 1480 1491 1493 1490 1492 1489 1476 1481 1483 1485 1486 1488 1489 1490 1492 1494 1497 1499 1502 1504 1506 1509 1511 1513 1515 1517 1519 1521 1523 1524 1526 1527 1528 1529 1529 1530 1531 1531 1532 1532 1533 1533 1532 1532 1532 1532 1531